Location: Rumah Dana
(3.1167°N, 113.0167°E)
Time: 12:00:21
(UTC+00:00)

SMAP - Pass Details

Date: 03 August 2024
Orbit: 681 x 683 km, 98.1° (Epoch: 07 September)

Event Time Altitude Azimuth Distance (km) Brightness Sun altitude
Rises 22:00:56 0° 22° (NNE) 3,028 7.0 -7.0°
Reaches altitude 10° 22:03:15 10° 29° (NNE) 2,115 6.3 -6.4°
Maximum altitude 22:07:40 46° 102° (ESE) 911 4.3 -5.4°
Drops below altitude 10° 22:12:06 10° 175° (S) 2,120 5.5 -4.3°
Sets 22:14:25 0° 181° (S) 3,036 6.2 -3.8°
